• In Spain
  • List of Countries
  • For 7 days
  • Water Temperature
  • Satellite Maps
  • Weather Map
  • Weather Widgets
  • user-avatar
    Login

    Hourly Weather Quito

    Today, 21 August, Monday

    Time Temperature Precipitation Wind Pressure Humidity
    00:00 +18°C° 0 mm 1 mps 623 mmHg 26%
    01:00 +16°C° 0 mm 2 mps 623 mmHg 29%
    02:00 +16°C° 0 mm 2 mps 623 mmHg 30%
    03:00 +15°C° 0 mm 2 mps 623 mmHg 32%
    04:00 +15°C° 0 mm 2 mps 622 mmHg 34%
    05:00 +15°C° 0 mm 2 mps 623 mmHg 35%
    06:00 +15°C° 0 mm 1 mps 623 mmHg 36%
    07:00 +18°C° 0 mm 1 mps 624 mmHg 37%
    08:00 +19°C° 0 mm 2 mps 625 mmHg 33%
    09:00 +22°C° 0 mm 3 mps 625 mmHg 29%
    10:00 +26°C° 0 mm 4 mps 626 mmHg 26%
    11:00 +27°C° 0 mm 4 mps 626 mmHg 23%
    12:00 +29°C° 0 mm 3 mps 626 mmHg 20%
    13:00 +30°C° 0 mm 3 mps 626 mmHg 18%
    14:00 +30°C° 0 mm 3 mps 625 mmHg 17%
    15:00 +29°C° 0 mm 3 mps 625 mmHg 17%
    16:00 +29°C° 0 mm 3 mps 624 mmHg 16%
    17:00 +27°C° 0 mm 2 mps 624 mmHg 20%
    18:00 +24°C° 0 mm 2 mps 623 mmHg 23%
    19:00 +22°C° 0 mm 1 mps 623 mmHg 26%
    20:00 +21°C° 0 mm 1 mps 623 mmHg 27%
    21:00 +20°C° 0 mm 1 mps 623 mmHg 29%
    22:00 +19°C° 0 mm 1 mps 623 mmHg 30%
    23:00 +18°C° 0 mm 1 mps 623 mmHg 32%

    Tomorrow, 22 August, Tuesday

    Time Temperature Precipitation Wind Pressure Humidity
    00:00 +18°C° 0 mm 1 mps 623 mmHg 34%
    01:00 +16°C° 0 mm 1 mps 622 mmHg 35%
    02:00 +15°C° 0 mm 1 mps 622 mmHg 37%
    03:00 +15°C° 0 mm 1 mps 622 mmHg 39%
    04:00 +14°C° 0 mm 1 mps 622 mmHg 41%
    05:00 +14°C° 0 mm 2 mps 622 mmHg 40%
    06:00 +15°C° 0 mm 2 mps 622 mmHg 40%
    07:00 +15°C° 0 mm 2 mps 623 mmHg 40%
    08:00 +18°C° 0 mm 3 mps 624 mmHg 33%
    09:00 +22°C° 0 mm 4 mps 625 mmHg 26%
    10:00 +26°C° 0 mm 4 mps 626 mmHg 19%
    11:00 +27°C° 0 mm 4 mps 626 mmHg 17%
    12:00 +29°C° 0 mm 4 mps 625 mmHg 15%
    13:00 +30°C° 0 mm 3 mps 625 mmHg 13%
    14:00 +30°C° 0 mm 3 mps 625 mmHg 12%
    15:00 +30°C° 0 mm 3 mps 624 mmHg 12%
    16:00 +30°C° 0 mm 2 mps 623 mmHg 11%
    17:00 +27°C° 0 mm 2 mps 623 mmHg 14%
    18:00 +24°C° 0 mm 1 mps 622 mmHg 16%
    19:00 +20°C° 0 mm 0 mps 621 mmHg 19%
    20:00 +19°C° 0 mm 0 mps 622 mmHg 20%
    21:00 +18°C° 0 mm 0 mps 622 mmHg 20%
    22:00 +17°C° 0 mm 0 mps 622 mmHg 21%
    23:00 +17°C° 0 mm 0 mps 622 mmHg 22%

    Day after tomorrow, 23 August, Wednesday

    Time Temperature Precipitation Wind Pressure Humidity
    00:00 +18°C° 0 mm 1 mps 622 mmHg 24%
    01:00 +16°C° 0 mm 1 mps 621 mmHg 25%
    02:00 +16°C° 0 mm 1 mps 621 mmHg 26%
    03:00 +15°C° 0 mm 1 mps 621 mmHg 27%
    04:00 +14°C° 0 mm 1 mps 620 mmHg 28%
    05:00 +15°C° 0 mm 1 mps 621 mmHg 29%
    06:00 +15°C° 0 mm 1 mps 622 mmHg 29%
    07:00 +16°C° 0 mm 1 mps 622 mmHg 29%
    08:00 +20°C° 0 mm 2 mps 623 mmHg 24%
    09:00 +25°C° 0 mm 2 mps 624 mmHg 19%
    10:00 +28°C° 0 mm 3 mps 626 mmHg 14%
    11:00 +30°C° 0 mm 3 mps 625 mmHg 12%
    12:00 +31°C° 0 mm 2 mps 625 mmHg 11%
    13:00 +32°C° 0 mm 2 mps 624 mmHg 10%
    14:00 +32°C° 0 mm 2 mps 624 mmHg 10%
    15:00 +32°C° 0 mm 2 mps 623 mmHg 10%
    16:00 +32°C° 0 mm 2 mps 623 mmHg 10%
    17:00 +29°C° 0 mm 1 mps 622 mmHg 12%
    18:00 +26°C° 0 mm 1 mps 622 mmHg 14%
    19:00 +23°C° 0 mm 1 mps 621 mmHg 16%
    20:00 +23°C° 0 mm 1 mps 622 mmHg 17%
    21:00 +22°C° 0 mm 1 mps 622 mmHg 18%
    22:00 +21°C° 0 mm 1 mps 622 mmHg 18%
    23:00 +20°C° 0 mm 1 mps 622 mmHg 21%

    24 August, Thursday

    Time Temperature Precipitation Wind Pressure Humidity
    00:00 +19°C° 0 mm 1 mps 621 mmHg 23%
    01:00 +18°C° 0 mm 1 mps 621 mmHg 25%
    02:00 +18°C° 0 mm 1 mps 621 mmHg 29%
    03:00 +16°C° 0 mm 1 mps 620 mmHg 32%
    04:00 +15°C° 0 mm 2 mps 620 mmHg 36%
    05:00 +16°C° 0 mm 2 mps 621 mmHg 35%
    06:00 +16°C° 0 mm 2 mps 621 mmHg 35%
    07:00 +16°C° 0 mm 2 mps 622 mmHg 35%
    08:00 +20°C° 0 mm 2 mps 623 mmHg 28%
    09:00 +25°C° 0 mm 2 mps 624 mmHg 22%
    10:00 +29°C° 0 mm 2 mps 625 mmHg 16%
    11:00 +30°C° 0 mm 2 mps 625 mmHg 14%
    12:00 +32°C° 0 mm 2 mps 625 mmHg 13%
    13:00 +34°C° 0 mm 2 mps 624 mmHg 11%
    14:00 +34°C° 0 mm 2 mps 624 mmHg 11%
    15:00 +32°C° 0 mm 2 mps 623 mmHg 11%
    16:00 +32°C° 0 mm 2 mps 622 mmHg 11%
    17:00 +29°C° 0 mm 2 mps 622 mmHg 14%
    18:00 +27°C° 0 mm 1 mps 622 mmHg 16%
    19:00 +24°C° 0 mm 1 mps 621 mmHg 18%
    20:00 +23°C° 0 mm 1 mps 621 mmHg 19%
    21:00 +22°C° 0 mm 1 mps 622 mmHg 20%
    22:00 +22°C° 0 mm 1 mps 622 mmHg 20%
    23:00 +21°C° 0 mm 1 mps 622 mmHg 24%

    25 August, Friday

    Time Temperature Precipitation Wind Pressure Humidity
    00:00 +20°C° 0 mm 1 mps 621 mmHg 28%
    01:00 +18°C° 0 mm 2 mps 621 mmHg 32%
    02:00 +17°C° 0 mm 2 mps 621 mmHg 37%
    03:00 +16°C° 0 mm 2 mps 620 mmHg 42%
    04:00 +16°C° 0 mm 2 mps 620 mmHg 47%
    05:00 +16°C° 0 mm 2 mps 621 mmHg 47%
    06:00 +16°C° 0 mm 2 mps 621 mmHg 48%
    07:00 +17°C° 0 mm 2 mps 622 mmHg 48%
    08:00 +20°C° 0 mm 2 mps 623 mmHg 39%
    09:00 +25°C° 0 mm 2 mps 624 mmHg 30%
    10:00 +28°C° 0 mm 2 mps 624 mmHg 21%
    11:00 +30°C° 0 mm 2 mps 624 mmHg 17%
    12:00 +32°C° 0 mm 2 mps 624 mmHg 14%
    13:00 +35°C° 0 mm 2 mps 624 mmHg 11%
    14:00 +35°C° 0 mm 2 mps 623 mmHg 11%
    15:00 +34°C° 0 mm 2 mps 623 mmHg 11%
    16:00 +32°C° 0 mm 2 mps 622 mmHg 11%
    17:00 +30°C° 0 mm 2 mps 621 mmHg 13%
    18:00 +27°C° 0 mm 1 mps 621 mmHg 15%
    19:00 +24°C° 0 mm 1 mps 621 mmHg 17%
    20:00 +23°C° 0 mm 1 mps 621 mmHg 17%
    21:00 +23°C° 0 mm 1 mps 621 mmHg 18%
    22:00 +22°C° 0 mm 1 mps 621 mmHg 18%
    23:00 +21°C° 0 mm 1 mps 621 mmHg 20%

    26 August, Saturday

    Time Temperature Precipitation Wind Pressure Humidity
    00:00 +20°C° 0 mm 1 mps 621 mmHg 22%
    01:00 +19°C° 0 mm 1 mps 621 mmHg 24%
    02:00 +19°C° 0 mm 1 mps 621 mmHg 27%
    03:00 +17°C° 0 mm 2 mps 621 mmHg 30%
    04:00 +16°C° 0 mm 2 mps 620 mmHg 33%
    05:00 +17°C° 0 mm 2 mps 621 mmHg 32%
    06:00 +17°C° 0 mm 2 mps 621 mmHg 32%
    07:00 +17°C° 0 mm 3 mps 622 mmHg 31%
    08:00 +21°C° 0 mm 3 mps 623 mmHg 25%
    09:00 +25°C° 0 mm 4 mps 624 mmHg 18%
    10:00 +28°C° 0 mm 4 mps 625 mmHg 12%
    11:00 +30°C° 0 mm 4 mps 624 mmHg 11%
    12:00 +33°C° 0 mm 3 mps 624 mmHg 10%
    13:00 +34°C° 0 mm 3 mps 624 mmHg 9%
    14:00 +34°C° 0 mm 3 mps 623 mmHg 9%
    15:00 +34°C° 0 mm 2 mps 623 mmHg 9%
    16:00 +34°C° 0 mm 2 mps 622 mmHg 9%
    17:00 +30°C° 0 mm 2 mps 622 mmHg 11%
    18:00 +27°C° 0 mm 1 mps 621 mmHg 13%
    19:00 +24°C° 0 mm 1 mps 621 mmHg 15%
    20:00 +23°C° 0 mm 1 mps 621 mmHg 15%
    21:00 +22°C° 0 mm 1 mps 621 mmHg 16%
    22:00 +21°C° 0 mm 1 mps 622 mmHg 17%
    23:00 +20°C° 0 mm 1 mps 621 mmHg 19%
    Show more